Wind_Speed
70 71 72 72 72 69 69 70 69 70 69 69 70 70 71 70 70 70 69 66 61 57 56 56 55 48 47 46 46 48 50 52 52 55 55 56 56 57 57 56 55 55 53
75 73 72 71 69 69 69 70 71 69 70 70 70 71 70 67 68 67 65 61 57 56 56 54 52 50 49 48 49 50 50 49 49 51 53 54 55 55 55 56 56 55 54
74 73 72 71 71 70 70 70 70 69 68 69 69 69 68 69 68 66 63 61 56 57 57 56 52 50 50 50 53 52 52 50 50 50 51 51 53 54 54 55 55 55 54
72 73 73 73 74 73 72 71 71 70 68 69 69 68 67 68 68 67 65 59 57 57 58 57 57 55 54 56 56 55 51 49 49 47 47 48 50 52 55 55 55 55 56
75 75 77 75 77 75 75 75 74 70 69 69 69 68 68 71 69 69 66 61 60 62 64 62 63 58 56 57 57 55 54 52 50 48 49 47 47 48 51 53 55 55 56
78 79 79 80 78 79 78 73 68 68 67 68 70 73 72 73 71 72 67 67 65 65 68 67 65 62 62 61 59 57 55 54 54 51 49 48 47 49 50 50 52 55 57
82 81 83 83 81 81 76 71 74 72 74 74 76 76 73 74 74 71 69 70 69 71 70 67 68 66 65 62 60 58 57 56 56 55 53 50 49 48 48 51 53 51 53
87 84 83 83 82 80 78 81 78 76 75 75 75 76 76 75 75 73 72 73 72 73 72 70 69 69 69 64 62 60 60 59 59 57 56 55 52 52 53 53 53 53 52
88 86 85 84 84 84 84 82 81 79 77 76 74 75 76 73 73 75 75 74 76 76 75 73 70 72 73 69 67 62 61 60 61 58 58 58 57 57 56 56 55 53 51
91 89 90 89 89 89 89 85 84 84 83 82 79 74 73 74 71 77 79 74 76 77 73 73 72 71 72 73 70 65 63 65 62 61 60 60 60 60 59 59 57 54 54
95 93 94 91 90 90 88 88 86 84 84 80 79 78 78 78 80 78 79 80 76 77 77 75 74 76 74 75 73 71 69 69 68 66 64 64 63 64 63 62 62 60 58
99 98 96 96 94 94 94 94 92 92 88 85 83 80 78 77 81 85 77 77 80 76 75 78 77 80 80 80 79 74 76 74 73 71 70 70 68 67 66 68 67 65 63
105 108 109 108 106 106 104 103 101 97 93 88 88 85 83 82 82 82 82 82 82 83 84 85 85 84 84 84 81 78 80 81 80 78 75 71 71 70 71 69 71 68 64
114 114 114 115 114 110 106 102 97 93 87 84 82 86 82 80 79 81 83 84 85 84 86 86 90 88 87 86 86 86 88 84 83 83 83 81 77 75 75 72 67 68 66
112 114 113 112 111 108 103 100 96 94 90 87 83 85 82 82 80 82 83 85 86 87 88 90 91 91 88 90 92 94 89 88 88 86 85 84 83 81 70 67 67 67 71
110 111 111 111 110 109 108 105 101 98 96 93 92 89 85 81 79 83 86 86 86 88 89 92 92 92 92 93 94 94 94 92 92 90 89 86 80 72 68 69 71 75 80
101 104 106 106 107 109 109 107 105 102 98 94 90 84 66 86 91 88 85 86 86 87 85 92 91 90 94 96 96 97 98 98 96 94 86 78 77 73 73 75 79 83 86
88 90 95 98 103 108 106 104 101 96 90 85 80 72 74 79 84 85 86 87 88 89 87 94 94 100 100 96 95 94 94 95 99 96 92 82 77 79 80 83 83 82 84
76 75 76 82 89 99 102 102 103 96 90 82 78 72 74 89 89 93 95 90 85 90 90 92 97 103 95 94 93 92 95 98 99 99 90 84 87 86 85 83 80 84 90
58 62 65 69 76 82 89 94 95 96 89 81 76 76 78 79 81 88 91 88 87 91 92 94 94 95 92 89 91 94 94 97 97 93 90 92 87 89 88 87 91 97 96
42 46 51 55 58 66 76 81 85 84 85 80 75 75 76 78 80 82 88 87 87 91 89 87 91 92 95 97 96 95 93 92 92 94 94 93 91 95 97 99 102 101 101
28 32 37 39 45 52 60 67 71 72 74 75 75 74 75 76 78 81 84 89 85 88 93 90 93 96 102 99 94 92 91 92 91 96 92 94 100 102 107 107 104 101 95
20 21 20 23 29 37 44 51 57 60 62 64 67 70 72 73 77 81 84 90 86 91 95 96 92 95 93 89 88 88 91 90 91 96 95 98 108 111 111 110 104 98 92
28 22 15 10 12 22 29 35 41 46 50 55 57 60 62 64 69 74 78 81 82 84 83 82 82 82 85 88 88 91 92 93 95 99 99 107 109 114 115 106 95 85 80
32 31 32 24 8 3 13 19 24 31 37 41 47 52 56 60 62 67 68 65 67 70 74 79 82 85 88 90 91 91 94 98 103 105 107 112 110 103 101 90 79 71 67
25 24 25 25 24 22 17 13 9 9 15 20 26 32 37 41 46 51 58 65 72 77 83 87 89 90 90 91 93 97 100 102 101 104 104 102 92 86 84 75 65 61 61
Wind_Direction
281 283 284 285 285 285 286 285 286 288 290 291 292 294 297 298 300 301 305 303 302 306 303 303 300 299 297 293 291 289 289 287 286 284 283 282 281 280 280 278 277 275 274
282 283 285 286 286 286 287 287 289 290 292 291 292 293 295 297 299 303 307 306 306 305 303 304 302 302 301 298 296 297 296 292 291 286 282 280 278 278 278 276 275 273 271
282 284 286 287 287 286 286 288 289 290 290 289 290 292 294 297 301 303 303 301 303 309 306 304 303 301 299 300 301 302 302 301 291 290 286 281 278 276 275 275 274 272 271
284 285 285 285 285 285 285 286 287 288 287 288 289 290 293 297 298 304 299 300 299 308 312 304 304 302 300 303 305 305 306 304 303 294 288 285 282 279 276 274 274 272 271
283 284 283 283 282 283 283 283 285 285 284 285 286 289 292 296 296 299 300 294 296 300 308 306 304 301 302 305 306 303 304 306 304 300 296 293 290 286 281 277 273 271 269
281 281 280 280 280 280 280 282 283 282 283 284 285 289 292 293 293 296 294 294 294 298 303 302 302 300 303 302 303 304 302 305 304 303 301 298 297 296 292 284 277 273 270
279 278 280 280 279 279 280 279 280 278 281 283 284 287 287 291 290 291 291 295 295 296 298 297 299 299 302 300 300 301 300 301 301 302 300 302 300 298 296 289 283 277 274
277 279 278 277 279 278 277 278 280 281 281 282 283 284 285 286 286 288 287 292 293 294 295 295 295 298 300 299 301 299 299 299 299 299 298 300 301 302 299 295 288 280 274
276 276 276 276 277 278 279 279 279 279 282 280 281 281 282 283 282 285 287 289 292 292 293 293 293 296 298 296 298 295 295 295 297 295 295 295 296 300 299 294 288 283 278
275 275 276 277 278 279 279 278 279 280 280 280 280 278 281 283 282 284 284 285 288 289 290 290 292 294 294 294 295 293 292 293 295 293 294 293 294 295 299 295 287 283 281
276 276 276 275 275 275 276 277 278 277 278 279 276 277 278 278 279 282 283 284 285 287 288 287 289 292 292 293 293 293 293 294 294 293 293 294 293 291 297 292 288 281 279
274 274 272 272 271 272 272 272 274 276 278 276 275 274 276 276 278 281 280 282 286 286 287 287 289 290 291 291 292 294 294 295 294 295 292 292 291 292 293 294 290 285 279
274 275 274 274 273 273 273 273 274 275 275 274 275 275 274 274 276 276 278 280 283 282 284 285 285 288 289 291 291 291 294 293 293 293 293 291 291 291 291 294 292 285 279
275 274 274 273 273 272 272 271 271 271 271 270 269 272 273 273 272 273 275 277 278 279 280 282 284 286 288 289 290 290 292 291 291 290 291 290 292 295 294 292 291 281 278
273 273 272 271 270 270 269 269 268 268 270 270 268 270 270 274 271 270 271 273 276 278 279 281 284 284 285 286 288 290 288 290 289 290 289 292 294 291 289 287 279 277 278
271 268 268 267 266 265 265 265 265 266 266 267 268 268 274 274 279 275 274 271 273 274 277 281 282 282 283 286 288 288 288 289 289 290 290 291 293 292 285 286 283 284 282
268 265 263 261 261 262 262 261 261 261 262 264 267 269 272 270 270 269 271 270 273 275 277 283 281 281 282 284 285 286 287 287 286 288 294 295 295 291 288 286 286 285 284
269 265 262 260 258 257 257 259 259 259 260 259 258 257 248 255 263 267 267 272 276 274 275 272 277 279 283 284 285 286 285 286 286 291 293 294 289 290 290 290 291 287 285
271 266 262 259 256 252 252 253 255 256 256 256 255 253 251 247 256 265 268 271 272 274 277 277 272 279 282 284 285 285 284 285 289 290 292 292 292 293 292 292 290 290 289
271 269 267 260 255 250 248 248 250 253 255 256 255 255 255 256 258 260 268 271 273 273 272 273 273 277 278 284 288 285 283 284 287 290 290 293 294 294 295 296 294 293 293
279 273 267 263 259 253 247 245 245 249 251 252 255 257 260 262 263 266 267 270 268 270 272 273 274 278 280 282 284 282 283 286 289 290 293 294 295 296 297 296 296 296 296
287 281 271 262 255 247 242 240 239 245 249 250 252 255 259 261 261 265 269 267 271 273 274 270 272 277 280 280 284 285 287 287 290 291 293 296 297 297 297 298 297 297 296
331 314 292 269 251 241 237 234 235 240 246 249 251 254 257 261 262 263 266 272 272 272 274 278 278 279 281 283 285 288 290 290 292 293 296 299 298 298 299 298 297 298 297
20 19 360 319 265 238 230 232 236 241 245 249 252 255 258 261 262 265 269 272 275 276 277 278 281 283 284 286 289 291 291 292 294 296 300 298 298 299 298 295 295 295 292
24 37 43 40 33 256 244 238 243 250 255 256 257 258 259 264 269 271 273 275 277 281 282 283 285 287 287 289 289 292 294 295 298 299 299 297 298 297 294 293 294 294 291
18 27 32 41 41 40 41 33 11 332 298 282 275 274 274 277 282 284 283 284 284 285 285 286 287 288 289 293 295 296 297 298 298 299 299 298 295 295 294 294 294 295 293
Height
10810 10808 10806 10804 10803 10800 10795 10792 10792 10791 10787 10784 10780 10777 10772 10767 10763 10758 10752 10747 10742 10739 10734 10730 10726 10721 10718 10714 10710 10706 10703 10701 10698 10696 10695 10693 10692 10691 10690 10690 10690 10691 10692
10794 10794 10792 10790 10788 10785 10781 10779 10779 10777 10773 10769 10766 10764 10760 10755 10750 10746 10740 10736 10732 10728 10725 10721 10717 10712 10708 10705 10702 10698 10694 10691 10688 10684 10682 10680 10678 10677 10676 10676 10676 10677 10678
10782 10780 10779 10776 10774 10771 10768 10766 10765 10763 10759 10756 10753 10750 10747 10743 10738 10733 10729 10725 10722 10718 10713 10710 10706 10703 10698 10694 10691 10687 10683 10679 10676 10673 10670 10667 10665 10664 10663 10663 10663 10664 10665
10768 10766 10765 10761 10758 10756 10755 10753 10751 10749 10746 10741 10739 10736 10734 10730 10726 10722 10718 10714 10711 10707 10703 10699 10695 10692 10688 10684 10678 10674 10671 10668 10664 10660 10657 10655 10653 10652 10651 10650 10650 10651 10652
10754 10752 10749 10747 10744 10742 10741 10739 10737 10735 10732 10728 10725 10722 10720 10716 10713 10709 10706 10702 10699 10695 10692 10688 10684 10680 10676 10673 10668 10663 10659 10656 10652 10649 10646 10644 10641 10639 10638 10637 10637 10637 10638
10739 10736 10733 10730 10731 10728 10725 10725 10723 10720 10718 10714 10711 10709 10707 10702 10699 10696 10692 10689 10687 10684 10680 10676 10672 10667 10664 10660 10656 10653 10648 10644 10641 10637 10634 10632 10630 10627 10625 10624 10623 10623 10624
10721 10721 10717 10714 10714 10712 10711 10710 10708 10705 10703 10700 10697 10694 10693 10688 10685 10682 10679 10675 10673 10670 10666 10662 10659 10654 10651 10647 10644 10640 10636 10633 10628 10625 10622 10619 10617 10615 10613 10611 10610 10609 10608
10703 10704 10702 10698 10695 10694 10695 10693 10691 10690 10687 10685 10682 10680 10678 10674 10670 10668 10664 10661 10658 10655 10651 10648 10644 10641 10638 10634 10632 10628 10623 10619 10616 10612 10610 10606 10603 10601 10599 10597 10596 10595 10594
10686 10686 10683 10680 10678 10676 10675 10675 10673 10673 10671 10669 10666 10666 10663 10660 10655 10652 10649 10646 10643 10639 10636 10633 10629 10626 10622 10620 10618 10614 10609 10606 10603 10600 10598 10594 10592 10589 10586 10584 10581 10580 10579
10667 10666 10664 10663 10660 10658 10656 10655 10654 10654 10654 10652 10651 10649 10648 10645 10641 10638 10634 10631 10628 10624 10620 10616 10613 10609 10606 10603 10602 10600 10595 10591 10588 10585 10584 10581 10578 10575 10572 10569 10567 10566 10564
10644 10646 10642 10642 10641 10640 10639 10637 10636 10633 10634 10636 10633 10633 10632 10630 10626 10624 10619 10614 10612 10609 10605 10601 10597 10594 10591 10588 10586 10584 10580 10575 10572 10569 10566 10564 10562 10559 10557 10554 10552 10549 10547
10618 10619 10621 10621 10622 10622 10621 10620 10620 10617 10615 10616 10615 10615 10614 10612 10610 10606 10602 10598 10595 10591 10588 10585 10581 10577 10575 10571 10570 10566 10562 10558 10554 10551 10549 10546 10544 10541 10538 10535 10533 10531 10529
10598 10591 10590 10595 10597 10597 10597 10598 10597 10599 10596 10595 10595 10596 10596 10595 10593 10590 10587 10584 10581 10577 10571 10569 10564 10561 10558 10554 10552 10548 10544 10541 10536 10533 10529 10526 10525 10523 10520 10517 10514 10511 10509
10571 10564 10561 10560 10564 10568 10570 10572 10575 10575 10577 10576 10576 10576 10576 10576 10574 10572 10570 10567 10564 10562 10556 10551 10545 10543 10538 10535 10532 10528 10526 10520 10517 10513 10509 10506 10505 10501 10499 10496 10493 10490 10487
10542 10536 10533 10531 10531 10535 10541 10545 10551 10553 10556 10558 10559 10559 10559 10558 10557 10555 10552 10549 10546 10543 10538 10534 10530 10524 10521 10518 10513 10508 10503 10500 10495 10491 10487 10483 10481 10479 10477 10474 10470 10466 10464
10510 10506 10505 10501 10501 10505 10510 10517 10524 10529 10534 10537 10540 10543 10544 10542 10538 10535 10532 10530 10528 10524 10521 10514 10509 10505 10501 10496 10491 10485 10481 10476 10471 10466 10464 10462 10458 10454 10452 10448 10446 10444 10440
10473 10471 10470 10472 10473 10475 10480 10487 10495 10502 10509 10515 10520 10529 10536 10525 10517 10514 10513 10511 10509 10506 10504 10491 10486 10482 10478 10474 10469 10463 10456 10451 10448 10443 10440 10437 10434 10431 10428 10424 10420 10417 10412
10434 10435 10436 10440 10444 10447 10452 10457 10467 10474 10484 10490 10498 10507 10513 10499 10496 10496 10492 10491 10491 10485 10485 10474 10468 10457 10456 10452 10447 10442 10434 10427 10421 10418 10415 10412 10409 10406 10401 10397 10393 10387 10380
10403 10402 10404 10406 10408 10414 10421 10431 10438 10448 10458 10468 10476 10483 10484 10483 10481 10474 10472 10473 10471 10463 10462 10455 10447 10439 10435 10429 10425 10421 10413 10406 10401 10393 10388 10386 10381 10377 10372 10366 10362 10353 10346
10380 10378 10377 10380 10381 10385 10394 10404 10414 10426 10439 10449 10456 10460 10463 10463 10463 10460 10458 10455 10452 10444 10437 10429 10424 10420 10414 10408 10403 10397 10390 10383 10377 10370 10363 10360 10356 10349 10340 10337 10330 10320 10311
10363 10359 10358 10357 10359 10364 10371 10381 10394 10407 10418 10429 10437 10442 10445 10447 10448 10445 10437 10432 10427 10422 10416 10411 10402 10397 10392 10386 10380 10373 10368 10361 10353 10344 10338 10332 10328 10317 10310 10304 10292 10283 10278
10352 10347 10341 10339 10340 10344 10352 10364 10379 10392 10402 10413 10420 10424 10426 10426 10425 10422 10417 10409 10408 10403 10397 10392 10385 10377 10371 10364 10358 10353 10345 10338 10332 10320 10317 10308 10292 10284 10275 10265 10254 10249 10245
10346 10340 10335 10333 10333 10337 10345 10355 10368 10380 10388 10395 10400 10404 10407 10407 10406 10404 10399 10390 10389 10383 10376 10371 10365 10357 10350 10343 10337 10329 10320 10314 10306 10292 10291 10283 10255 10250 10241 10227 10217 10215 10212
10348 10340 10334 10333 10334 10338 10343 10353 10363 10373 10379 10383 10387 10389 10390 10390 10387 10385 10381 10376 10368 10364 10358 10352 10345 10337 10330 10321 10313 10305 10294 10287 10276 10264 10264 10250 10232 10222 10208 10194 10191 10190 10182
10358 10349 10344 10342 10342 10344 10350 10356 10363 10368 10371 10375 10376 10377 10376 10375 10374 10371 10366 10358 10352 10345 10338 10331 10324 10316 10307 10298 10289 10279 10268 10258 10247 10237 10230 10216 10202 10195 10174 10166 10164 10161 10153
10369 10363 10356 10352 10351 10353 10354 10358 10362 10364 10367 10367 10367 10367 10366 10364 10362 10358 10351 10343 10335 10327 10318 10308 10299 10291 10281 10272 10262 10252 10241 10230 10223 10210 10201 10182 10172 10167 10148 10140 10142 10138 10131